Regional Weather Roundup
Issued by NWS

Home | Current Version | Previous Version | Text Only | Print | Product List | Glossary Off
Versions: 1 2 3 4 5 6 7 8 9 10 11 12 13 14 15 16 17 18 19 20 21 22 23 24 25 26 27 28 29 30 31 32 33 34 35 36 37 38 39 40 41 42 43 44 45 46 47 48 49 50

000
ASUS43 KLOT 290806
RWRIL

ILLINOIS REGIONAL WEATHER ROUNDUP
NATIONAL WEATHER SERVICE CHICAGO/ROMEOVILLE IL
200 AM CST SAT NOV 29 2014

NOTE: "FAIR" INDICATES FEW OR NO CLOUDS BELOW 12,000 FEET WITH NO
SIGNIFICANT WEATHER AND/OR OBSTRUCTIONS TO VISIBILITY.

* THESE STATIONS ARE NOT UNDER NWS QUALITY CONTROL. THEY ALSO MAY NOT
  REPORT WEATHER SUCH AS PRECIPITATION OR FOG.

ILZ001-002-007-009-015-016-024-290900-
NORTHWEST ILLINOIS

CITY           SKY/WX    TMP DP  RH WIND       PRES   REMARKS
MOLINE         CLEAR     33  29  85 VRB3      29.72F
STERLING*      PTCLDY    34  28  80 SE7       29.75F WCI  28
SAVANNA*       PTCLDY    31  28  90 SE7       29.74F WCI  24
$$

ILZ003-004-008-010-011-017-018-290900-
NORTH CENTRAL ILLINOIS

CITY           SKY/WX    TMP DP  RH WIND       PRES   REMARKS
ROCKFORD       CLEAR     30  26  85 SE10      29.78F WCI  21
FREEPORT*      CLEAR     28  27  94 SE10      29.76F FOG     WCI  19
ROCHELLE*      CLEAR     31  29  92 SE9       29.78F WCI  23
DE KALB*       CLEAR     29  27  92 SE14      29.79F FOG     WCI  18
PERU*          MOCLDY    34  31  88 S9        29.80F WCI  27
$$

ILZ005-006-012>014-019>023-290900-
NORTHEAST ILLINOIS

CITY           SKY/WX    TMP DP  RH WIND       PRES   REMARKS
CHICAGO-OHARE  PTCLDY    31  27  85 S10       29.82F WCI  22
CHICAGO-MIDWAY MOCLDY    33  27  78 S9        29.85F WCI  25
AURORA         CLEAR     30  25  81 SE7       29.82F HAZE    WCI  23
LANSING*       CLEAR     31  26  83 S8        29.88S WCI  23
JOLIET*        CLEAR     32  28  85 SE7       29.84F WCI  26
WAUKEGAN       PTCLDY    32  27  81 S8        29.81F WCI  25
DUPAGE AIRPORT CLEAR     31  27  85 S9        29.81F WCI  23
KANKAKEE*      CLEAR     34  29  82 S10       29.87F WCI  26
WHEELING       PTCLDY    32  27  81 S9        29.84F WCI  24
MORRIS*        CLEAR     31  29  93 S9        29.82F WCI  23
ROMEOVILLE*    CLEAR     31  28  88 S10       29.83F WCI  22
NORTHERLY ISL    N/A     32  26  79 S14         N/A  WCI  22
$$

LMZ740>746-290900-
SOUTHERN LAKE MICHIGAN

STATION/POSITION SKY/WX   TEMP    WIND        PRES    VSBY  WAVE
                          AIR SEA DIR/SP/G                  HT/PER
                          (F)     (DEG/KT/KT) (MB)    (MI)  (FT/S)
SOUTHERN BUOY              39 42  180/ 19/ 21 1011.5F         5/ 6
WAUKEGAN HARBOR            34     180/ 13/ 15   N/A
HARRISON CRIB              34     180/ 22/ 25   N/A
BURNHAM HARBOR             33     160/  7/ 12   N/A
CALUMET HARBOR             33     160/ 10/ 13 1009.9F
MICHIGAN CITY              34     140/ 14/ 19   N/A
$$

ILZ025>027-034>036-040-047-049-050-058-095>099-290900-
WEST-CENTRAL ILLINOIS

CITY           SKY/WX    TMP DP  RH WIND       PRES   REMARKS
QUINCY         CLEAR     44  34  67 S14       29.74F
GALESBURG*     CLEAR     34  32  92 S8        29.74F WCI  27
MACOMB*        PTCLDY    35  32  90 S9        29.76F WCI  28
JACKSONVILLE*  PTCLDY    41  35  79 S13       29.80S
PITTSFIELD*    CLEAR     42  35  74 S10       29.78F
$$

ILZ028>032-037-038-041>044-048-051>054-059>061-290900-
CENTRAL ILLINOIS

CITY           SKY/WX    TMP DP  RH WIND       PRES   REMARKS
PONTIAC        PTCLDY    35  32  88 S12       29.84F WCI  26
BLOOMINGTON    PTCLDY    34  31  89 S14       29.84F WCI  25
DECATUR        FAIR      38  31  76 S13       29.87F WCI  30
PEORIA         PTCLDY    37  31  78 S14       29.79F WCI  28
LACON*         PTCLDY    35  31  85 S8        29.78F WCI  28
LINCOLN*       PTCLDY    36  32  85 S13       29.84S WCI  28
SPRINGFIELD    PTCLDY    39  34  82 S14       29.82F WCI  31
TAYLORVILLE    PTCLDY    36  32  87 S14G20    29.85S WCI  27
$$

ILZ033-039-045-046-055>057-062-063-290900-
EAST-CENTRAL ILLINOIS

CITY           SKY/WX    TMP DP  RH WIND       PRES   REMARKS
CHAMPAIGN      PTCLDY    34  29  82 S10       29.88F WCI  26
DANVILLE*      PTCLDY    34  28  77 S10       29.88F WCI  26
RANTOUL*       PTCLDY    33  30  88 SE8       29.87F WCI  26
MATTOON        PTCLDY    37  28  70 S14       29.89F WCI  28
PARIS*         PTCLDY    35  30  82 S9        29.93S WCI  27
$$

ILZ079-100>102-290900-
SOUTHWEST ILLINOIS

CITY           SKY/WX    TMP DP  RH WIND       PRES   REMARKS
ALTON          PTCLDY    40  33  78 SE7       29.86S
BELLEVILLE     CLEAR     41  36  84 S12       29.87F
CAHOKIA*       CLEAR     41  34  76 S7        29.87F
SPARTA*        CLEAR     42  33  71 S13G18    29.91F
$$

ILZ064>066-069>071-074>076-080>082-084>086-088>090-092>094-290900-
SOUTH-CENTRAL ILLINOIS

CITY           SKY/WX    TMP DP  RH WIND       PRES   REMARKS
CARBONDALE     CLEAR     44  30  57 S21       29.95F
CAIRO*         MOCLDY    43  31  62 S6        30.01S
EFFINGHAM*     PTCLDY    36  27  69 S7        29.92S WCI  30
MARION         CLEAR     43  30  61 S16       29.97S
MT. VERNON     CLEAR     41  30  65 S9        29.94F
CENTRALIA*     CLEAR     42  32  68 S15       29.91F
SALEM*           N/A     45  33  65 S13       29.91F
METROPOLIS*    PTCLDY    44  31  60 S8          N/A
$$

ILZ067-068-072-073-078-083-087-091-290900-
SOUTHEAST ILLINOIS

CITY           SKY/WX    TMP DP  RH WIND       PRES   REMARKS
LAWRENCEVILLE  PTCLDY    35  29  78 S8        29.98S WCI  29
FLORA*         PTCLDY    37  30  77 S9        29.94F WCI  30
FAIRFIELD*     CLEAR     38  30  72 S8        29.95F WCI  32
HARRISBURG*    CLEAR     42  30  60 S7        30.00R
ROBINSON*      PTCLDY    33  28  83 S6        29.97S WCI  27
CARMI*         CLEAR     40  33  75 S9        29.98F
$$

ABBREVIATIONS USED IN REMARKS
   TC - TEMPERATURE IN CELSIUS
  WCI - WIND CHILL INDEX
   HX - HEAT INDEX
  VSB - VISIBILITY
$$



USA.gov is the U.S. government's official web portal to all federal, state and local government web resources and services.